Regional Weather Roundup
Issued by NWS

Home | Current Version | Previous Version | Graphics & Text | Print | Product List | Glossary On
Versions: 1 2 3 4 5 6 7 8 9 10 11 12 13 14 15 16 17 18 19 20 21 22 23 24 25 26 27 28 29 30 31 32 33 34 35 36 37 38 39 40 41 42 43 44 45 46 47 48 49 50
000
ASUS43 KDTX 242101
RWRMI
MICHIGAN HOURLY REGIONAL WEATHER ROUNDUP
NATIONAL WEATHER SERVICE DETROIT/PONTIAC MI
500 PM EDT SUN JUL 24 2016

NOTE: "FAIR" INDICATES FEW OR NO CLOUDS BELOW 12,000 FEET WITH NO
SIGNIFICANT WEATHER AND/OR OBSTRUCTION TO VISIBILITY.

MIZ047>049-052>055-059>063-066>070-074>076-081>083-242200-
SOUTHEAST LOWER MICHIGAN

CITY           SKY/WX    TMP DP  RH WIND       PRES   REMARKS
ADRIAN         CLOUDY    81  73  76 SW12      29.93F
ALMA           CLOUDY    85  78  78 S7        29.86F HX  97
ANN ARBOR      CLOUDY    85  73  67 S13       29.91F HX  91
BAD AXE        PTSUNNY   81  70  69 SW9G17    29.90S
CARO           CLOUDY    83  72  69 SW7       29.89S
DETROIT CITY   CLOUDY    82  71  69 MISG      29.92F
DETROIT        PTSUNNY   84  71  65 SW14      29.92F
FLINT          MOSUNNY   85  71  63 SW6       29.91S HX  90
GROSSE ILE     CLOUDY    80  70  71 S8        29.91F
HOWELL         MOSUNNY   83  74  74 SW9       29.90S HX  90

CITY           SKY/WX    TMP DP  RH WIND       PRES   REMARKS
JACKSON        CLOUDY    84  76  76 SW13      29.91F HX  93
LAMBERTVILLE   CLOUDY    83  72  69 SW5       29.93F
LANSING        MOSUNNY   86  72  62 SW22G29   29.89S HX  92
LAPEER         FAIR      83  70  63 SW6       29.92F
MASON          MOSUNNY   84  74  70 SW8       29.89F HX  91
MONROE         CLOUDY    82  73  74 SW5       29.92F
PONTIAC        PTSUNNY   81  72  74 SW7       29.91S
PORT HOPE        N/A     83  70  64 SW6       29.85F
PORT HURON     CLOUDY    79  72  78 SW5       29.92R
TRI CITIES     MOSUNNY   83  72  69 S9        29.87F
MIDLAND        PTSUNNY   82  70  67 SW7       29.86F
TROY           CLOUDY    82  70  66 S6        29.93S
SAGINAW HB     PTSUNNY   82  70  65 S12G17    29.87F
$$
MIZ043>046-050>051-056>058-064>065-071>073-077>080-242200-
SOUTHWEST LOWER MICHIGAN

CITY           SKY/WX    TMP DP  RH WIND       PRES   REMARKS
BATTLE CREEK   CLOUDY    84  77  79 SW16      29.91F HX  94
BENTON HARBOR  CLOUDY    90  76  63 S13G20    29.87F HX 101
BIG RAPIDS     CLOUDY    84  77  79 SW8       29.85S HX  94
COLDWATER      CLOUDY    85  75  72 SW8       29.92F HX  94
FREMONT        CLOUDY    85  79  83 SW17G23   29.84S HX  98
HOLLAND        CLOUDY    89  77  67 S18G25    29.86F HX 101
GRAND RAPIDS   PTSUNNY   87  75  67 SW17G26   29.87F HX  96
IONIA          FAIR      86  71  60 SW15G22   29.86F HX  92
KALAMAZOO      CLOUDY    88  76  67 S10       29.90F HX  99
LUDINGTON      MOSUNNY   83  76  78 S18G28    29.81S HX  92
MARSHALL       CLOUDY    84  78  81 S9        29.91F HX  95
MOUNT PLEASANT CLOUDY    82  73  76 S6        29.85F
MUSKEGON       PTSUNNY   85  75  72 S18G26    29.84S HX  93
$$
MIZ016>042-242200-
NORTHERN LOWER MICHIGAN

CITY           SKY/WX    TMP DP  RH WIND       PRES   REMARKS
ALPENA         MOSUNNY   86  68  54 SW7       29.82F
BEAVER ISLAND  CLOUDY    71  69  94 SW12      29.80S FOG
BELLAIRE       CLOUDY    81  71  70 SW7       29.81R
CADILLAC       CLOUDY    80  73  79 SW10G16   29.85S
CHARLEVOIX     CLOUDY    80  70  73 S8        29.83R
FRANKFORT      CLOUDY    76  70  81 S8G22     29.81S
GAYLORD        LGT RAIN  79  70  74 SW10      29.85S
GRAYLING       CLOUDY    79  71  76 S6        29.86S
HARBOR SPRINGS CLOUDY    78  71  77 CALM      29.80F
HOUGHTON LAKE  PTSUNNY   80  70  71 S8        29.86F
MANISTEE       CLOUDY    82  75  79 SW9G18    29.81S
OSCODA         CLOUDY    82  70  67 SW12G20   29.85S
PELLSTON       CLOUDY    79  69  71 SW3       29.81S
ROGERS CITY    CLOUDY    77  68  75 N7        29.82S
TRAVERSE CITY  CLOUDY    83  72  69 VRB5      29.78F
$$
MIZ007>008-015-242200-
EASTERN UPPER MICHIGAN

CITY           SKY/WX    TMP DP  RH WIND       PRES   REMARKS
KINROSS        CLOUDY    73  70  90 VRB6      29.80F
MACKINAC ISLAN CLOUDY    73  73 100 SW12      29.81S
NEWBERRY       CLOUDY    71  70  96 SW13      29.78S FOG
S. S. MARIE    CLOUDY    73  71  93 S7        29.79F FOG
$$
MIZ004>006-011>014-085-242200-
CENTRAL UPPER MICHIGAN

CITY           SKY/WX    TMP DP  RH WIND       PRES   REMARKS
MANISTIQUE     CLOUDY    70  69  97 SW10      29.78R
ESCANABA         N/A    N/A N/A N/A MISG        N/A
MENOMINEE      CLOUDY    81  77  88 VRB6      29.78S
SAWYER-GWINN   PTSUNNY   84  70  61 W15G22    29.76S
$$
MIZ001>003-009>011-084-242200-
WESTERN UPPER MICHIGAN

CITY           SKY/WX    TMP DP  RH WIND       PRES   REMARKS
IRON MOUNTAIN  MOSUNNY   85  69  58 W10       29.77F
HOUGHTON       SUNNY     79  63  57 W22G30    29.75S
COPPER HARBOR    N/A     77  68  73 N14       29.71S
IRONWOOD       PTSUNNY   79  66  65 NW13      29.79R
$$

ABBREVIATIONS USED IN REMARKS
   TC - TEMPERATURE IN CELSIUS
  WCI - WIND CHILL INDEX
   HX - HEAT INDEX
  VSB - VISIBILITY





USA.gov is the U.S. government's official web portal to all federal, state and local government web resources and services.